Starlink 32233

operational
NORAD ID: 60434 Int'l Des: 2024-144 Owner: SPXS Country: US Constellation: starlink
LEOCIRCULAR

About Starlink 32233

Description loading...

Live Position

Loading 3D Globe...

Upcoming Passes

Altitude History

Altitude vs Time

uPlot chart will show altitude changes over time

Two-Line Element Set

1 60434U 24144K 25257.42921163 .00005809 00000-0 20836-3 0 9995
2 60434 53.1614 315.7898 0001149 88.3383 271.7749 15.30157823 62323
Epoch: Sep 14, 2025 • Age: 24 hours

Current Status

Altitude 480.0 km
Velocity 7.63 km/s
Sub-Earth Point -16.45°S, 11.18°W
Launch Date Aug 12, 2024
Age 1 years
Type internet

Technical Details

Classification Payload
Mass 730.00 kg
Dry Mass 700.00 kg
Total Mass 730.00 kg
Length 0.30 m
Diameter 4.10 m
Span 29.00 m
Shape Box + pan
Manufacturer SPXS
Bus Type Starlink V2M
Phase Status In Orbit
Owner/State SPXS/US

Large Constellations

Loading constellations...